[[{"header":{"parameterUnit":"m.s-1","parameterCategory":1,"la1":30.2991,"la2":30.254,"lo1":-89.0895,"lo2":-89.0444,"dy":0.0017,"dx":0.0017,"nx":28,"ny":28,"refTime":"2024-02-12T03:00:00:Z","depth":0,"parameterNumber":2,"parameterNumberName":"U-component_of_WINDS"},"data":[0,0,0,0,0,0,0,0,0,0,0,0,0,0,0,0,0,0,0,0,0,0,0,0,0,0,0,0,0,0,0,0,0,0,0,0,0,0,0,0,0,0,0,0,0,0,0,0,0,0,0,0,0,0,0,0,0,0,1.1584,1.1585,0,1.1638,1.1639,1.1639,1.1648,1.1648,1.1647,1.1647,1.1703,1.1705,1.1707,0,0,0,0,0,0,0,0,0,0,0,0,0,1.1492,1.1493,1.1584,1.1585,1.1586,1.1638,1.1639,1.1639,1.1648,1.1648,1.1647,1.1646,1.1702,1.1704,1.1707,0,0,0,0,0,0,0,0,0,0,0,0,0,1.1537,1.1494,1.1584,1.1596,1.1598,1.1638,1.1639,1.164,1.1648,1.1648,1.1647,1.1646,1.1701,1.1704,1.1707,1.1739,0,0,1.1716,1.1717,0,0,0,0,0,0,0,0,1.1535,1.1541,1.1594,1.1595,1.1597,1.1636,1.1627,1.1673,1.1648,1.1629,1.1647,1.1646,1.1681,1.1686,1.1697,1.1742,1.1744,1.1716,1.1718,1.1719,1.172,0,0,0,0,0,0,0,1.1531,1.1538,1.1606,1.1595,1.1597,1.16,1.1605,1.1635,1.1658,1.1631,1.1632,1.1638,1.1682,1.1694,1.1699,1.1745,1.1716,1.1719,1.1721,1.1722,1.1821,1.1822,0,0,0,0,0,0,1.1526,1.1536,1.1604,1.1607,1.1564,1.1602,1.1608,1.1624,1.1658,1.1663,1.1638,1.1638,1.169,1.1695,1.1701,1.1742,1.1719,1.1722,1.1724,1.182,1.1821,1.1822,0,0,0,0,0,0,1.1524,1.1532,1.1602,1.1572,1.1581,1.1604,1.1622,1.1625,1.1638,1.1664,1.1668,1.1647,1.169,1.1697,1.173,1.1744,1.1723,1.1726,1.1819,1.182,1.1822,1.1824,0,0,0,0,0,0,1.1521,1.1531,1.1543,1.1572,1.1582,1.1629,1.1623,1.1627,1.1643,1.1643,1.1673,1.1677,1.169,1.1726,1.1733,1.1748,1.1728,1.1818,1.182,1.1821,1.1823,1.1825,1.1827,0,0,0,0,0,1.1518,1.1541,1.1543,1.1551,1.1597,1.163,1.1636,1.165,1.1644,1.1656,1.1673,1.1676,1.1741,1.1729,1.1737,1.1753,1.1817,1.1819,1.1821,1.1822,1.1825,1.1827,0,0,0,0,0,0,1.1513,1.1545,1.1548,1.1581,1.1603,1.1631,1.1647,1.1652,1.1676,1.1675,1.1691,1.1698,1.1731,1.1745,1.1731,1.1787,1.1779,1.1783,1.1776,1.178,1.1782,1.1778,1.1731,0,0,0,0,0,1.1516,1.1539,1.1566,1.1593,1.1603,1.1624,1.1638,1.1647,1.167,1.168,1.1699,1.1722,1.1748,1.1764,1.1789,1.1825,1.1832,1.184,1.1842,1.1844,1.1847,1.1869,1.1873,1.1829,1.1829,1.1829,0,0,1.1521,1.1542,1.1556,1.1592,1.161,1.1635,1.1631,1.1657,1.1676,1.1684,1.1717,1.1732,1.1759,1.1794,1.181,1.1807,1.1861,1.1847,1.1848,1.185,1.1872,1.1876,1.188,1.183,1.183,1.183,0,0,1.1545,1.1562,1.1587,1.1606,1.1633,1.1646,1.1653,1.1681,1.1691,1.1725,1.1732,1.1755,1.1798,1.1818,1.1833,1.1867,1.1871,1.1874,1.1886,1.1908,1.1911,1.1914,1.1928,1.1932,1.1877,1.1877,1.1877,0,1.1549,1.1586,1.16,1.1626,1.1643,1.1651,1.1677,1.1694,1.1728,1.174,1.1736,1.1792,1.1811,1.1851,1.186,1.1872,1.188,1.1871,1.1909,1.1913,1.1916,1.1929,1.1934,1.1878,1.1878,1.1878,1.1878,0,1.1591,1.1616,1.1633,1.1667,1.1685,1.1711,1.173,1.1747,1.1755,1.1769,1.1804,1.1827,1.1858,1.1868,1.1875,1.191,1.1907,1.1906,1.1898,1.192,1.1933,1.1938,1.1878,1.1878,1.1878,1.1878,0,0,1.1612,1.1654,1.166,1.1676,1.1707,1.1728,1.1755,1.1785,1.18,1.1824,1.1848,1.1886,1.1885,1.1903,1.1913,1.1931,1.1958,1.1928,1.1929,1.1934,1.2001,1.2002,1.2008,1.1961,1.1962,1.1963,1.1999,0,1.1641,1.1689,1.1703,1.1744,1.1769,1.1778,1.1802,1.1825,1.1839,1.1863,1.188,1.1907,1.1903,1.1914,1.1933,1.1951,1.1972,1.1948,1.1985,1.1986,1.1979,1.2014,1.2015,1.2048,1.2004,1.2005,1.2005,0,1.168,1.1705,1.1749,1.1779,1.179,1.1811,1.1841,1.1863,1.1889,1.1899,1.192,1.1928,1.1958,1.1949,1.1991,1.1975,1.1991,1.2003,1.2004,1.2009,1.1998,1.2021,1.2059,1.2064,1.2013,1.2012,1.2012,0,1.1693,1.1738,1.177,1.1783,1.1819,1.1834,1.1849,1.1875,1.1893,1.1919,1.1931,1.196,1.1977,1.2,1.2017,1.2008,1.2059,1.205,1.2069,1.2068,1.2079,1.2079,1.2122,1.2088,1.2088,1.2088,1.2087,0,1.1724,1.1751,1.1777,1.1797,1.1828,1.1844,1.1874,1.189,1.1914,1.1938,1.1947,1.197,1.199,1.2016,1.203,1.2064,1.2071,1.2081,1.2084,1.208,1.2079,1.2092,1.209,1.2089,1.2089,1.2088,1.2088,0,1.1745,1.1763,1.1799,1.183,1.1838,1.186,1.1887,1.1907,1.1922,1.1953,1.1961,1.1986,1.2017,1.2036,1.2075,1.2084,1.2123,1.2125,1.2114,1.2116,1.2134,1.2133,1.2187,1.2196,1.2155,1.2155,1.2156,0,1.1764,1.1785,1.1818,1.1835,1.1851,1.1877,1.1896,1.1913,1.1932,1.1965,1.1982,1.2014,1.204,1.209,1.2111,1.2142,1.2146,1.2163,1.215,1.2147,1.2148,1.2147,1.215,1.2165,1.2166,1.2166,1.2166,0,1.1796,1.1804,1.183,1.186,1.1882,1.1906,1.193,1.1944,1.1966,1.1987,1.2019,1.2039,1.208,1.2112,1.2145,1.2162,1.2168,1.217,1.2176,1.2173,1.2167,1.2172,1.2121,1.2169,1.2168,1.2168,1.2168,1.2168,1.1817,1.1837,1.1864,1.1893,1.1914,1.1936,1.1958,1.1976,1.2003,1.2037,1.2046,1.208,1.2108,1.2153,1.2171,1.2198,1.2196,1.2204,1.2207,1.2209,1.221,1.2161,1.2204,1.2204,1.2204,1.2204,1.2204,0,1.1852,1.187,1.1896,1.193,1.1954,1.1957,1.1985,1.2005,1.2034,1.2059,1.2085,1.2123,1.2155,1.2179,1.2212,1.223,1.2234,1.2238,1.2237,1.2242,1.221,1.2202,1.2234,1.2234,1.2234,1.2234,1.2234,1.2234,1.1872,1.1907,1.1918,1.1963,1.1982,1.2015,1.203,1.2052,1.2073,1.2114,1.2141,1.2156,1.2182,1.2217,1.2247,1.2253,1.2265,1.2269,1.2277,1.2247,1.2244,1.224,1.2233,1.2272,1.2272,1.2306,1.2307,1.2307]},{"header":{"parameterUnit":"m.s-1","parameterCategory":1,"la1":30.2991,"la2":30.254,"lo1":-89.0895,"lo2":-89.0444,"dy":0.0017,"dx":0.0017,"nx":28,"ny":28,"refTime":"2024-02-12T03:00:00:Z","depth":0,"parameterNumber":3,"parameterNumberName":"V-component_of_WINDS"},"data":[0,0,0,0,0,0,0,0,0,0,0,0,0,0,0,0,0,0,0,0,0,0,0,0,0,0,0,0,0,0,0,0,0,0,0,0,0,0,0,0,0,0,0,0,0,0,0,0,0,0,0,0,0,0,0,0,0,0,-3.3488,-3.3489,0,-3.3572,-3.3573,-3.3574,-3.3629,-3.3629,-3.363,-3.363,-3.3711,-3.3713,-3.3715,0,0,0,0,0,0,0,0,0,0,0,0,0,-3.3373,-3.3375,-3.3488,-3.3489,-3.349,-3.3572,-3.3573,-3.3574,-3.3629,-3.3629,-3.363,-3.363,-3.3711,-3.3713,-3.3715,0,0,0,0,0,0,0,0,0,0,0,0,0,-3.3437,-3.3376,-3.3488,-3.3527,-3.3532,-3.3572,-3.3573,-3.3575,-3.3629,-3.3629,-3.363,-3.363,-3.371,-3.3713,-3.3715,-3.3721,0,0,-3.3724,-3.3725,0,0,0,0,0,0,0,0,-3.3433,-3.3441,-3.352,-3.3525,-3.353,-3.3591,-3.3563,-3.3624,-3.3629,-3.3592,-3.363,-3.3631,-3.367,-3.3676,-3.3691,-3.3725,-3.3729,-3.3724,-3.3726,-3.3727,-3.3728,0,0,0,0,0,0,0,-3.3428,-3.3437,-3.3521,-3.3522,-3.3527,-3.354,-3.355,-3.3574,-3.3627,-3.3595,-3.3599,-3.3609,-3.3673,-3.3688,-3.3693,-3.373,-3.3724,-3.3726,-3.3728,-3.3729,-3.3777,-3.3777,0,0,0,0,0,0,-3.3418,-3.3433,-3.3519,-3.3524,-3.3482,-3.3542,-3.3553,-3.357,-3.3627,-3.3636,-3.3608,-3.3611,-3.3683,-3.369,-3.3696,-3.3709,-3.3727,-3.3729,-3.3731,-3.3777,-3.3777,-3.3776,0,0,0,0,0,0,-3.3416,-3.3425,-3.3515,-3.348,-3.3492,-3.3543,-3.3563,-3.3572,-3.3587,-3.3637,-3.3646,-3.3614,-3.3684,-3.3692,-3.3716,-3.3713,-3.3731,-3.3733,-3.3778,-3.3777,-3.3777,-3.3734,0,0,0,0,0,0,-3.3412,-3.3424,-3.3427,-3.348,-3.3494,-3.3534,-3.3563,-3.3573,-3.3592,-3.3597,-3.3645,-3.3653,-3.3685,-3.3711,-3.3719,-3.3717,-3.3735,-3.3778,-3.3778,-3.3777,-3.3736,-3.3732,-3.3728,0,0,0,0,0,-3.3408,-3.341,-3.3427,-3.3437,-3.3499,-3.3533,-3.3542,-3.3579,-3.3592,-3.3595,-3.3628,-3.3652,-3.3712,-3.3713,-3.3722,-3.3721,-3.3779,-3.3778,-3.3777,-3.3737,-3.3732,-3.3729,0,0,0,0,0,0,-3.3352,-3.3417,-3.3437,-3.3456,-3.3489,-3.3543,-3.3548,-3.3573,-3.3601,-3.3604,-3.3649,-3.3659,-3.3679,-3.3702,-3.3702,-3.3732,-3.3748,-3.3749,-3.3715,-3.3711,-3.3708,-3.3701,-3.3737,0,0,0,0,0,-3.3343,-3.3367,-3.3421,-3.3433,-3.3449,-3.3496,-3.3512,-3.3539,-3.3574,-3.3588,-3.3622,-3.3654,-3.3681,-3.3697,-3.3724,-3.374,-3.3752,-3.3743,-3.374,-3.3737,-3.3737,-3.3749,-3.3747,-3.3774,-3.3774,-3.3774,0,0,-3.3323,-3.3361,-3.3372,-3.3423,-3.3452,-3.3475,-3.3507,-3.3529,-3.3547,-3.3591,-3.3616,-3.3642,-3.3682,-3.3702,-3.3712,-3.3722,-3.3732,-3.3736,-3.3733,-3.3735,-3.3748,-3.3745,-3.3743,-3.3773,-3.3773,-3.3773,0,0,-3.3298,-3.3329,-3.3343,-3.3373,-3.3417,-3.3449,-3.3452,-3.3503,-3.3523,-3.355,-3.3584,-3.3606,-3.365,-3.3678,-3.3697,-3.3688,-3.3712,-3.3695,-3.3676,-3.3688,-3.3686,-3.3684,-3.3682,-3.368,-3.3695,-3.3695,-3.3695,0,-3.3266,-3.3304,-3.3347,-3.3369,-3.3391,-3.3435,-3.345,-3.3476,-3.3526,-3.354,-3.3551,-3.361,-3.3639,-3.3668,-3.3666,-3.368,-3.3686,-3.3689,-3.3683,-3.3681,-3.3681,-3.3679,-3.3678,-3.3693,-3.3693,-3.3693,-3.3694,0,-3.3264,-3.329,-3.3296,-3.3347,-3.3369,-3.3387,-3.3434,-3.3451,-3.3477,-3.3508,-3.3536,-3.3573,-3.361,-3.3619,-3.3643,-3.3652,-3.3657,-3.3674,-3.3692,-3.3675,-3.3675,-3.3674,-3.369,-3.3691,-3.3691,-3.3692,0,0,-3.3203,-3.3281,-3.3283,-3.3308,-3.3362,-3.3382,-3.3404,-3.3442,-3.3457,-3.3491,-3.3511,-3.3549,-3.3568,-3.359,-3.3618,-3.3628,-3.3621,-3.3645,-3.3647,-3.364,-3.3635,-3.3622,-3.362,-3.3637,-3.3637,-3.3637,-3.3632,0,-3.3187,-3.3229,-3.3271,-3.3298,-3.3323,-3.3367,-3.3386,-3.3421,-3.3451,-3.3477,-3.351,-3.3537,-3.3558,-3.3572,-3.3585,-3.3619,-3.362,-3.362,-3.3656,-3.3656,-3.3645,-3.362,-3.3605,-3.3598,-3.3632,-3.3632,-3.3632,0,-3.3173,-3.3209,-3.3239,-3.3294,-3.3307,-3.3323,-3.3363,-3.3387,-3.3429,-3.345,-3.3478,-3.3508,-3.3534,-3.355,-3.3585,-3.3584,-3.3602,-3.3621,-3.3622,-3.3626,-3.3643,-3.3624,-3.3596,-3.3595,-3.3632,-3.3632,-3.3632,0,-3.3128,-3.3183,-3.3209,-3.3229,-3.3294,-3.3305,-3.3332,-3.3374,-3.3396,-3.3431,-3.3446,-3.3482,-3.3502,-3.353,-3.357,-3.3578,-3.3603,-3.3621,-3.3621,-3.362,-3.3624,-3.3623,-3.3599,-3.3634,-3.3634,-3.3634,-3.3634,0,-3.3105,-3.3122,-3.319,-3.3206,-3.3227,-3.3275,-3.3295,-3.3326,-3.3364,-3.3387,-3.3427,-3.3447,-3.3499,-3.3526,-3.3557,-3.3583,-3.3591,-3.3609,-3.3618,-3.3606,-3.3604,-3.3618,-3.3619,-3.3634,-3.3634,-3.3634,-3.3634,0,-3.3057,-3.3104,-3.3135,-3.3196,-3.3212,-3.3224,-3.3276,-3.3293,-3.3327,-3.3356,-3.3366,-3.3418,-3.3452,-3.3496,-3.3542,-3.3564,-3.3587,-3.3599,-3.3573,-3.3578,-3.3576,-3.3576,-3.356,-3.3561,-3.3595,-3.3594,-3.3594,0,-3.304,-3.3055,-3.3118,-3.3138,-3.3165,-3.3195,-3.3219,-3.3267,-3.329,-3.3341,-3.3353,-3.339,-3.3423,-3.3476,-3.3517,-3.3554,-3.3568,-3.356,-3.3573,-3.3563,-3.3569,-3.3568,-3.3571,-3.3556,-3.3556,-3.3555,-3.3555,0,-3.3005,-3.3028,-3.3061,-3.3104,-3.3131,-3.3166,-3.3203,-3.3216,-3.3273,-3.3296,-3.3333,-3.3359,-3.3409,-3.3447,-3.349,-3.3517,-3.3546,-3.3551,-3.3553,-3.3541,-3.3526,-3.3536,-3.3564,-3.355,-3.3551,-3.3551,-3.3551,-3.3552,-3.2972,-3.2989,-3.3037,-3.3074,-3.3108,-3.3142,-3.3162,-3.3201,-3.3233,-3.3279,-3.3306,-3.3342,-3.3387,-3.3448,-3.3475,-3.3504,-3.3514,-3.3517,-3.3518,-3.3518,-3.3515,-3.3522,-3.3512,-3.3512,-3.3512,-3.3512,-3.3512,0,-3.294,-3.2975,-3.3008,-3.306,-3.3089,-3.3117,-3.316,-3.3182,-3.3214,-3.3254,-3.3287,-3.3331,-3.3368,-3.3415,-3.3455,-3.347,-3.3484,-3.3479,-3.3478,-3.3485,-3.3502,-3.3497,-3.3467,-3.3467,-3.3467,-3.3467,-3.3467,-3.3467,-3.2927,-3.2957,-3.2987,-3.3035,-3.3069,-3.3107,-3.3129,-3.3162,-3.3194,-3.3242,-3.3275,-3.3306,-3.3349,-3.3394,-3.343,-3.3442,-3.3456,-3.3447,-3.3463,-3.3479,-3.3483,-3.3487,-3.3482,-3.3449,-3.3449,-3.3444,-3.3443,-3.3443]}]]